Date,TemperatureHighF,TemperatureAvgF,TemperatureLowF,DewpointHighF,DewpointAvgF,DewpointLowF,HumidityHigh,HumidityAvg,HumidityLow,PressureMaxIn,PressureMinIn,WindSpeedMaxMPH,WindSpeedAvgMPH,GustSpeedMaxMPH,PrecipitationSumIn
2013-2-1,39.7,38.5,36.0,39.2,37.8,34.3,98,97,91,29.56,29.44,13,0,13,0.00
2013-2-2,39.2,38.3,37.0,38.7,37.7,35.7,98,98,95,29.44,28.82,12,0,12,0.00
2013-2-3,40.6,36.9,33.4,36.6,34.3,32.2,97,90,78,29.15,28.82,6,0,6,0.00
2013-2-4,40.1,37.4,35.8,37.5,34.1,32.0,95,88,78,29.35,29.15,8,0,8,0.00
2013-2-5,43.9,35.4,29.5,41.5,31.5,25.0,95,86,60,29.32,29.29,0,0,0,0.00
2013-2-6,32.9,28.2,24.8,29.2,13.7,6.1,90,55,41,29.41,29.29,0,0,0,0.00
2013-2-7,42.1,32.9,27.3,36.7,27.5,13.9,89,81,56,29.32,28.97,0,0,0,0.00
2013-2-8,37.6,32.7,26.8,36.0,30.4,24.2,97,91,85,29.44,29.18,15,0,17,0.00
2013-2-9,40.5,38.8,34.7,39.8,37.1,33.1,98,94,82,29.26,28.56,23,2,23,0.00
2013-2-10,39.2,34.3,27.7,37.2,22.6,9.9,97,63,44,29.41,28.64,13,0,13,0.00
2013-2-11,34.3,27.2,19.9,29.0,16.8,6.8,92,66,46,29.53,29.41,0,0,0,0.00
2013-2-12,39.9,34.4,28.8,37.3,30.7,24.4,95,86,72,29.53,29.32,0,0,0,0.00
2013-2-13,36.7,32.7,27.0,36.2,30.1,23.1,98,90,66,29.53,29.18,16,0,16,0.00
2013-2-14,39.7,36.0,33.3,37.4,32.1,27.1,98,86,62,29.29,28.85,14,0,14,0.00
2013-2-15,35.6,29.1,20.5,29.6,14.8,4.5,87,56,41,29.83,29.29,13,1,13,0.00
2013-2-16,34.9,27.7,19.4,33.1,19.9,6.6,95,73,55,29.85,29.26,8,0,8,0.00
2013-2-17,34.2,30.7,24.6,33.2,22.5,0.9,98,74,35,29.53,29.23,0,0,0,0.00
2013-2-18,35.6,28.4,23.0,13.6,8.4,0.1,55,43,22,29.62,29.50,13,1,13,0.00
2013-2-19,34.2,31.4,27.0,33.7,25.7,11.1,98,81,51,29.50,28.73,10,0,10,0.00
2013-2-20,39.6,33.0,27.0,35.8,29.6,21.8,98,88,71,29.06,28.67,14,0,14,0.00
2013-2-21,32.0,28.2,25.5,22.4,18.1,8.9,83,66,44,29.12,28.85,0,0,0,0.00
2013-2-22,37.6,31.8,27.0,28.8,13.6,8.1,86,47,39,29.29,29.06,19,2,19,0.00
2013-2-23,42.1,34.1,30.4,33.2,26.0,19.7,97,74,49,29.06,28.79,12,0,12,0.00
2013-2-24,40.1,34.8,30.2,33.8,30.3,26.2,93,84,70,29.35,28.97,11,0,11,0.00
2013-2-25,36.1,33.6,29.5,34.3,29.7,23.2,95,86,61,29.35,28.94,26,3,26,0.00
2013-2-26,40.6,36.9,34.0,36.7,34.4,31.3,96,91,73,28.97,28.85,24,2,24,0.00
2013-2-27,34.5,34.3,34.0,33.5,33.0,32.4,96,95,94,28.85,28.82,0,0,0,0.00
2013-2-28,33.3,30.2,28.0,20.2,16.6,14.4,70,57,49,29.23,29.15,11,0,11,0.00